DW6233 Weather Reports


Display with metric or nautical units.
time (UTC)temp
F
wind
direction
speed
MPH
gust
MPH
rain 1hr
in
rain 24hr
in
rain mn
in
humidity
%
barometer
mb
20260901031531 55 315 15.0 22.0 0.00 0.00 0.00 61 1012.4
20260901030022 55 349 14.0 25.0 0.00 0.00 0.00 61 1012.5
20260901024523 55 327 14.0 23.0 0.00 0.00 0.00 61 1012.2
20260901021517 55 1 10.0 18.0 0.00 0.00 0.00 59 1012.2
20260901020014 54 358 9.0 20.0 0.00 0.00 0.00 61 1012.2
20260901014514 55 355 8.0 17.0 0.00 0.00 0.00 56 1012.2
20260901013014 55 25 9.0 13.0 0.00 0.00 0.00 54 1012.2
20260901011512 54 349 9.0 16.0 0.00 0.00 0.00 57 1012.4
20260901010038 53 332 6.0 12.0 0.00 0.00 0.00 51 1012.5
20260901004532 53 335 3.0 9.0 0.00 0.00 0.00 58 1012.8
20260901003036 52 308 7.0 13.0 0.00 0.00 0.00 54 1013.0
20260901001540 53 346 7.0 11.0 0.00 0.00 0.00 50 1013.0
20260901000030 52 314 6.0 10.0 0.00 0.00 0.00 48 1013.2
20260831234529 52 342 5.0 8.0 0.00 0.00 0.00 53 1013.2
20260831233027 52 353 6.0 12.0 0.00 0.00 0.00 61 1013.2
20260831231525 52 1 8.0 12.0 0.00 0.00 0.00 64 1013.3
20260831230023 52 335 5.0 14.0 0.00 0.00 0.00 65 1013.3
20260831224523 52 287 6.0 10.0 0.00 0.00 0.00 65 1013.4
20260831223019 51 3 4.0 6.0 0.00 0.00 0.00 68 1013.2
20260831221524 50 291 1.0 2.0 0.00 0.00 0.00 70 1012.9
20260831220013 49 312 0.0 1.0 0.00 0.00 0.00 73 1012.8
20260831214511 49 358 0.0 3.0 0.00 0.00 0.00 72 1012.5
20260831213011 49 4 1.0 4.0 0.00 0.00 0.00 73 1012.4
20260831211510 48 127 0.0 2.0 0.00 0.00 0.00 75 1012.4
20260831210003 47 110 0.0 1.0 0.00 0.00 0.00 78 1012.3
20260831204559 46 64 1.0 3.0 0.00 0.00 0.00 80 1012.3
20260831203033 45 95 0.0 3.0 0.00 0.00 0.00 82 1012.2
20260831201531 43 82 2.0 4.0 0.00 0.00 0.00 81 1012.2
20260831200031 42 76 3.0 6.0 0.00 0.00 0.00 83 1012.1
20260831194528 41 107 1.0 4.0 0.00 0.00 0.00 86 1011.9
20260831193038 39 95 0.0 1.0 0.00 0.00 0.00 87 1011.8
20260831191525 40 105 0.0 3.0 0.00 0.00 0.00 87 1011.3
20260831190038 40 128 2.0 3.0 0.00 0.00 0.00 85 1010.8
20260831184519 40 99 1.0 2.0 0.00 0.00 0.00 86 1010.6
20260831183017 40 120 1.0 1.0 0.00 0.00 0.00 85 1010.4
20260831181514 41 92 1.0 3.0 0.00 0.00 0.00 84 1010.1
20260831180012 41 135 2.0 5.0 0.00 0.00 0.00 82 1010.0
20260831174510 42 143 1.0 5.0 0.00 0.00 0.00 80 1009.8
20260831173008 42 126 3.0 5.0 0.00 0.00 0.00 80 1009.6
20260831171506 42 142 2.0 4.0 0.00 0.00 0.00 79 1009.5
20260831170007 42 176 1.0 4.0 0.00 0.00 0.00 80 1009.5
20260831164511 43 191 1.0 5.0 0.00 0.00 0.00 80 1009.3
20260831163004 44 61 0.0 3.0 0.00 0.00 0.00 79 1009.4
20260831161502 43 135 0.0 2.0 0.00 0.00 0.00 79 1009.1
20260831160059 43 101 1.0 3.0 0.00 0.00 0.00 79 1009.1
20260831154606 42 107 0.0 1.0 0.00 0.00 0.00 80 1008.9
20260831153109 42 86 0.0 1.0 0.00 0.00 0.00 81 1008.8
20260831151553 42 154 0.0 2.0 0.00 0.00 0.00 81 1008.7
20260831150058 43 195 0.0 2.0 0.00 0.00 0.00 81 1008.6
20260831144550 43 150 0.0 3.0 0.00 0.00 0.00 80 1008.7
20260831143049 43 337 0.0 2.0 0.00 0.00 0.00 81 1008.5
20260831141551 43 103 0.0 5.0 0.00 0.00 0.00 80 1008.6
20260831140045 43 192 0.0 4.0 0.00 0.00 0.00 80 1008.7
20260831134553 43 135 1.0 3.0 0.00 0.00 0.00 81 1008.4
20260831133059 44 56 0.0 4.0 0.00 0.00 0.00 82 1008.6
20260831131551 44 233 1.0 7.0 0.00 0.00 0.00 81 1008.4
20260831130039 44 232 3.0 6.0 0.00 0.00 0.00 84 1008.2
20260831124538 44 146 1.0 7.0 0.00 0.00 0.00 84 1007.9
20260831123036 44 234 2.0 4.0 0.00 0.00 0.00 85 1007.7
20260831121534 44 242 2.0 6.0 0.00 0.00 0.00 84 1007.5
20260831120039 44 147 3.0 6.0 0.00 0.00 0.00 84 1007.3
20260831114532 44 179 2.0 5.0 0.00 0.00 0.00 84 1007.2
20260831113030 44 277 1.0 3.0 0.00 0.00 0.00 84 1007.1
20260831111528 44 145 4.0 12.0 0.00 0.00 0.00 83 1006.9
20260831110023 44 221 5.0 10.0 0.00 0.00 0.00 83 1006.5
20260831104529 44 121 2.0 8.0 0.00 0.00 0.00 82 1006.4
20260831103023 44 236 7.0 11.0 0.00 0.00 0.00 82 1006.4
20260831101518 44 231 3.0 7.0 0.00 0.00 0.00 84 1006.4
20260831100016 44 243 1.0 5.0 0.00 0.00 0.00 84 1006.3
20260831094527 44 114 1.0 16.0 0.00 0.00 0.00 82 1005.9
20260831093020 44 211 3.0 15.0 0.00 0.00 0.00 82 1005.6
20260831091519 44 220 7.0 16.0 0.00 0.00 0.00 83 1005.4
20260831090010 44 214 10.0 24.0 0.00 0.00 0.00 84 1005.1
20260831084520 45 152 11.0 20.0 0.00 0.00 0.00 85 1004.7
20260831083108 46 201 11.0 23.0 0.00 0.00 0.00 84 1004.4
20260831081525 47 228 7.0 17.0 0.00 0.00 0.00 81 1004.1
20260831080121 47 218 5.0 12.0 0.00 0.00 0.00 80 1003.6
20260831074556 47 227 6.0 14.0 0.00 0.00 0.00 80 1003.2
20260831073054 47 191 7.0 15.0 0.00 0.00 0.00 81 1002.6
20260831071553 47 237 4.0 14.0 0.00 0.00 0.00 82 1002.1
20260831070045 48 230 5.0 12.0 0.00 0.00 0.00 80 1001.6
20260831064550 48 249 3.0 11.0 0.00 0.00 0.00 79 1001.1
20260831063053 49 245 6.0 16.0 0.00 0.00 0.00 79 1000.8
20260831061544 50 253 5.0 18.0 0.00 0.00 0.00 77 1000.3
20260831060043 52 227 15.0 23.0 0.00 0.00 0.00 72 999.9
20260831054541 57 229 14.0 23.0 0.00 0.00 0.00 61 999.3
20260831053053 58 245 18.0 26.0 0.00 0.00 0.00 59 998.9
20260831051542 59 234 23.0 39.0 0.00 0.00 0.00 59 998.8
20260831050039 60 294 26.0 40.0 0.00 0.00 0.00 50 998.3
20260831044539 60 261 22.0 29.0 0.00 0.00 0.00 57 997.9
20260831043040 60 295 19.0 30.0 0.00 0.00 0.00 59 997.9
20260831041540 60 314 22.0 30.0 0.00 0.00 0.00 63 997.5
20260831040041 59 309 22.0 31.0 0.00 0.00 0.00 62 997.6
20260831034536 60 320 25.0 36.0 0.00 0.00 0.00 63 997.5
20260831033036 60 299 22.0 30.0 0.00 0.00 0.00 63 997.5